Flag for Thailand Weather past 2 weeks in Phuket, Thailand

Now
90 °F

Partly sunny.


Feels Like: 92 °F
Forecast: 77 / 88 °F
Wind: 9 mph from East

Location: Phuket Airport

Current Time: Jan 26, 2015 at 2:20:01 PM

Latest Report: Jan 26, 2015 at 2:00 PM


Visibility: 4 mi

Pressure: 29.89 "Hg

Humidity: 46%

Dew point: 66 °F

Location of PhuketLocation

Historic Weather in Phuket — Graph

°F

Phuket temperature yesterday

Maximum temperature yesterday: 90 °F (at 1:30 PM)
Minimum temperature yesterday: 72 °F (at 4:00 AM)
Average temperature yesterday: 81 °F

Past Weeks' High & Low Weather Summary

 TemperatureHumidityPressure
High90 °F (Jan 11, 4:00 PM)94% (Jan 23, 7:30 AM)30.07 "Hg (Jan 23, 7:30 AM)
Low72 °F (Jan 23, 6:30 AM)33% (Jan 25, 4:30 PM)29.77 "Hg (Jan 11, 2:00 PM)
Average81 °F68%29.91 "Hg
* Reported Jan 11 1:30 PM — Jan 26 1:00 PM, Phuket, Weather by CustomWeather, © 2014

Note: Actual official high and low records may vary slightly from our data, if they occured in-between our weather recording intervals... More about our weather records

Advertising

Phuket weather history for previous 24 hours

 ConditionsComfort  
Time TempWeatherWind HumidityBarometerVisibility
1:00 PM
Jan 26
88 °FBroken clouds.12 mph52%29.92 "Hg4 mi
12:30 PM90 °FPartly sunny.13 mph46%29.92 "Hg5 mi
12:00 PM88 °FPartly sunny.12 mph52%29.95 "Hg5 mi
11:30 AM88 °FPartly sunny.10 mph52%29.95 "Hg5 mi
11:00 AM86 °FPartly sunny.8 mph55%29.95 "Hg5 mi
10:30 AM84 °FPartly sunny.9 mph58%29.95 "Hg5 mi
9:30 AM82 °FPartly sunny.14 mph62%29.98 "Hg5 mi
9:00 AM81 °FPartly sunny.8 mph66%29.95 "Hg5 mi
8:30 AM79 °FPartly sunny.8 mph70%29.95 "Hg5 mi
8:00 AM79 °FPartly sunny.9 mph70%29.95 "Hg6 mi
7:30 AM77 °FPartly sunny.7 mph74%29.92 "Hg6 mi
7:00 AM77 °FPartly sunny.8 mph74%29.92 "Hg6 mi
6:30 AM77 °FPassing clouds.9 mph74%29.92 "Hg6 mi
6:00 AM77 °FPassing clouds.10 mph74%29.92 "Hg6 mi
5:30 AM77 °FPassing clouds.7 mph74%29.92 "Hg6 mi
5:00 AM79 °FPassing clouds.9 mph70%29.92 "Hg6 mi
4:30 AM79 °FPassing clouds.6 mph70%29.92 "Hg6 mi
3:30 AM79 °FPassing clouds.6 mph70%29.92 "Hg6 mi
3:00 AM79 °FPassing clouds.7 mph70%29.92 "Hg6 mi
2:30 AM79 °FPassing clouds.5 mph70%29.92 "Hg6 mi
2:00 AM79 °FPassing clouds.6 mph70%29.92 "Hg6 mi
1:30 AM79 °FPassing clouds.3 mph70%29.95 "Hg6 mi
1:00 AM79 °FPassing clouds.3 mph70%29.95 "Hg6 mi
12:30 AM77 °FPassing clouds.No wind74%29.95 "Hg6 mi
12:00 AM77 °FPassing clouds.No wind79%29.95 "Hg6 mi
11:30 PM
Jan 25
75 °FPassing clouds.No wind83%29.95 "Hg6 mi
11:00 PM77 °FPassing clouds.No wind79%29.95 "Hg6 mi
10:30 PM77 °FPassing clouds.No wind79%29.95 "Hg6 mi
10:00 PM77 °FPassing clouds.3 mph79%29.95 "Hg6 mi
9:30 PM77 °FPassing clouds.No wind79%29.98 "Hg6 mi
9:00 PM77 °FPassing clouds.No wind74%29.95 "Hg6 mi
8:30 PM79 °FPassing clouds.No wind70%29.95 "Hg6 mi
8:00 PM82 °FPassing clouds.7 mph62%29.92 "Hg6 mi
7:30 PM81 °FPassing clouds.6 mph66%29.92 "Hg6 mi
7:00 PM82 °FPassing clouds.7 mph62%29.92 "Hg6 mi
6:30 PM84 °FScattered clouds.9 mph58%29.92 "Hg6 mi
6:00 PM86 °FScattered clouds.3 mph55%29.89 "Hg6 mi
5:30 PM88 °FScattered clouds.6 mph40%29.86 "Hg6 mi
5:00 PM90 °FPassing clouds.9 mph33%29.86 "Hg6 mi
4:30 PM90 °FPassing clouds.9 mph33%29.86 "Hg6 mi
4:00 PM90 °FPassing clouds.10 mph36%29.86 "Hg6 mi
3:30 PM90 °FPassing clouds.10 mph36%29.86 "Hg6 mi
3:00 PM90 °FPassing clouds.10 mph36%29.89 "Hg6 mi
2:30 PM90 °FPassing clouds.12 mph38%29.89 "Hg6 mi
2:00 PM90 °FPassing clouds.12 mph36%29.89 "Hg6 mi
Weather by CustomWeather, © 2014

See weather overviewHow to use our weather pages